This is the latest recevied weather packets stored in our database for station/object KD5FHA. If no packets are shown the sender has not sent any weather packets the latest 1 day(s).
| Time | Temp. | Humidity | Pressure | Rain* | Wind** | Luminosity | Snow |
|---|---|---|---|---|---|---|---|
| 1836274743 | 26.67° C | 71% | 1016.9 hPa | 0 mm | 0 m/s | 0 W/m² | - |
| 1836274441 | 26.67° C | 70% | 1016.9 hPa | 0 mm | 0 m/s | 0 W/m² | - |
| 1836274295 | 26.67° C | 71% | 1017 hPa | 0 mm | 0 m/s | 0 W/m² | - |
| 1836274140 | 26.67° C | 70% | 1016.9 hPa | 0 mm | 0 m/s | 0 W/m² | - |
| 1778062002 | 15.56° C | 76% | 1010.8 hPa | 0 mm | 2.24 m/s, 34° | 0 W/m² | - |
| 1778061700 | 15.56° C | 75% | 1011 hPa | 0 mm | 1.79 m/s, 40° | 0 W/m² | - |
| 1778061398 | 15.56° C | 75% | 1011 hPa | 0 mm | 2.24 m/s, 29° | 0 W/m² | - |
| 1778061094 | 16.11° C | 76% | 1011 hPa | 0 mm | 0.89 m/s, 16° | 0 W/m² | - |
| 1778060792 | 16.11° C | 75% | 1010.9 hPa | 0 mm | 2.24 m/s, 59° | 0 W/m² | - |
| 1778060490 | 16.11° C | 75% | 1010.7 hPa | 0 mm | 2.24 m/s, 12° | 0 W/m² | - |
| 1778060188 | 16.11° C | 76% | 1010.7 hPa | 0 mm | 1.34 m/s, 28° | 0 W/m² | - |
| 1778059884 | 16.11° C | 76% | 1010.8 hPa | 0 mm | 0.89 m/s, 30° | 0 W/m² | - |
| 1778059582 | 16.11° C | 76% | 1010.7 hPa | 0 mm | 0.89 m/s, 23° | 0 W/m² | - |
| 1778059279 | 16.11° C | 76% | 1010.7 hPa | 0 mm | 1.79 m/s, 6° | 0 W/m² | - |
| 1778058977 | 16.11° C | 76% | 1011 hPa | 0 mm | 1.79 m/s, 17° | 0 W/m² | - |
| 1778058674 | 16.67° C | 76% | 1010.7 hPa | 0 mm | 2.68 m/s, 6° | 0 W/m² | - |
| 1778058373 | 16.67° C | 76% | 1010.7 hPa | 0 mm | 1.34 m/s, 37° | 0 W/m² | - |
| 1778058068 | 16.67° C | 76% | 1010.5 hPa | 0 mm | 1.34 m/s, 335° | 0 W/m² | - |
| 1778057765 | 16.67° C | 76% | 1010.7 hPa | 0 mm | 1.79 m/s, 24° | 0 W/m² | - |
| 1778057462 | 16.67° C | 75% | 1010.5 hPa | 0 mm | 2.68 m/s, 30° | 0 W/m² | - |
| 1778057159 | 16.67° C | 76% | 1010.7 hPa | 0 mm | 1.79 m/s, 23° | 0 W/m² | - |
| 1778056855 | 16.67° C | 76% | 1010.3 hPa | 0 mm | 2.68 m/s, 44° | 0 W/m² | - |
| 1778056552 | 16.67° C | 76% | 1010.3 hPa | 0 mm | 2.24 m/s, 13° | 0 W/m² | - |
| 1778056249 | 16.67° C | 76% | 1010.2 hPa | 0 mm | 1.79 m/s, 28° | 0 W/m² | - |
| 1778055946 | 16.67° C | 76% | 1010.3 hPa | 0 mm | 3.13 m/s, 16° | 0 W/m² | - |
* Rain latest hour (hover to see other rain measurements)
** Current wind speed in m/s (hover to see current wind gust speed)